Starlink 31584

operational
NORAD ID: 59862 Int'l Des: 2024-098 Owner: SPXS Country: US Constellation: starlink
LEOCIRCULAR

关于 Starlink 31584

正在加载描述...

实时位置

正在加载3D地球...

即将过境

高度历史

Altitude vs Time

uPlot chart will show altitude changes over time

两行轨道根数

1 59862U 24098E 25348.20201866 .00001199 00000-0 53110-4 0 9994
2 59862 43.0065 40.6393 0002030 255.7875 104.2751 15.27577037 88773
Epoch: Dec 14, 2025 • Age: 40 hours

当前状态

高度 490.3 km
速度 7.62 km/s
星下点 -30.74°S, 150.36°W
发射日期 May 24, 2024
运行时间 1.5 years
类型 internet

技术详情

分类 Payload
质量 730.00 kg
干质量 700.00 kg
总质量 730.00 kg
长度 0.30 m
直径 4.10 m
跨度 29.00 m
形状 Box + pan
制造商 SPXS
平台类型 Starlink V2M
阶段状态 In Orbit
所有者/国家 SPXS/US

大型星座

Loading constellations...